Date String (YYYY-MM-DD hh:mm:ss) UTC,Instrument flags,Ambient pressure (hPa),Sample flow (lpm),Bypass flow (lpm),Sample temperature (°C),Ambient temperature (°C),ASC tube jacket temperature (°C),LED temperature (°C),Box temperature (°C),Sample RH (%),Mass concentration (μg/m³),Mass concentration (μg/m³)
DateTimeUTC,F1_M11,P_M11,Q1_M11,Q2_M11,T1_M11,T2_M11,T3_M11,T4_M11,T5_M11,U1_M11,X0_M11,X2_M11
2021-08-12 20:00:00,,0833.1,5.00,0.00,28.8,27.8,00.0,37.8,30.9,26.0,0040.79,0025.17
2021-08-12 20:01:00,,0833.2,5.00,0.00,28.8,26.5,00.0,37.8,30.5,25.8,0040.06,0025.05
2021-08-12 20:02:00,,0833.1,5.01,0.00,28.6,25.4,00.0,37.7,30.2,26.4,0038.69,0024.92
2021-08-12 20:03:00,,0833.1,4.99,0.00,28.5,25.6,00.0,37.7,30.2,26.5,0036.12,0024.76
2021-08-12 20:04:00,,0833.1,5.00,0.00,28.4,26.0,00.0,37.7,30.3,26.5,0034.56,0024.63
2021-08-12 20:05:00,,0833.1,5.01,0.00,28.5,26.4,00.0,37.7,30.4,26.0,0034.38,0024.58
2021-08-12 20:06:00,,0833.2,5.00,0.00,28.5,26.9,00.0,37.7,30.5,26.4,0035.05,0024.46
2021-08-12 20:07:00,,0833.2,5.01,0.00,28.6,27.2,00.0,37.7,30.7,26.6,0035.71,0024.36
2021-08-12 20:08:00,,0833.1,5.00,0.00,28.7,27.5,00.0,37.7,30.8,25.9,0034.85,0024.32
2021-08-12 20:09:00,,0833.2,5.00,0.00,28.8,27.8,00.0,37.7,30.9,26.0,0034.61,0024.24
2021-08-12 20:10:00,,0833.2,5.00,0.00,28.8,28.0,00.0,37.7,31.0,26.6,0034.78,0024.11
2021-08-12 20:11:00,,0833.2,5.00,0.00,28.9,27.8,00.0,37.8,30.9,26.7,0034.34,0023.98
2021-08-12 20:12:00,,0833.2,5.01,0.00,28.8,26.2,00.0,37.8,30.5,26.8,0034.77,0023.82
2021-08-12 20:13:00,,0833.2,5.00,0.00,28.6,25.5,00.0,37.8,30.2,26.4,0035.76,0023.69
2021-08-12 20:14:00,,0833.2,4.99,0.00,28.6,25.9,00.0,37.7,30.3,26.6,0036.72,0023.57
2021-08-12 20:15:00,,0833.1,5.00,0.00,28.5,26.3,00.0,37.7,30.4,26.9,0037.12,0023.50
2021-08-12 20:16:00,,0833.1,5.00,0.00,28.6,26.7,00.0,37.7,30.5,27.2,0037.78,0023.41
2021-08-12 20:17:00,,0833.1,5.01,0.00,28.6,27.1,00.0,37.7,30.7,27.5,0037.28,0023.26
2021-08-12 20:18:00,,0833.1,5.00,0.00,28.7,27.5,00.0,37.7,30.8,27.3,0036.57,0023.13
2021-08-12 20:19:00,,0833.1,5.00,0.00,28.8,27.8,00.0,37.7,30.9,26.5,0036.81,0022.94
2021-08-12 20:20:00,,0833.2,5.00,0.00,28.8,27.6,00.0,37.8,30.9,26.0,0036.58,0022.92
2021-08-12 20:21:00,,0833.2,5.01,0.00,28.8,26.1,00.0,37.8,30.4,25.8,0037.81,0022.95
2021-08-12 20:22:00,,0833.2,5.01,0.00,28.6,25.3,00.0,37.7,30.1,25.9,0039.17,0022.97
2021-08-12 20:23:00,,0833.2,5.00,0.00,28.5,25.7,00.0,37.7,30.2,26.5,0040.57,0023.04
2021-08-12 20:24:00,,0833.2,5.01,0.00,28.5,26.1,00.0,37.7,30.3,26.5,0039.96,0023.10
2021-08-12 20:25:00,,0833.2,5.00,0.00,28.5,26.5,00.0,37.7,30.5,26.3,0039.63,0023.12
2021-08-12 20:26:00,,0833.2,4.99,0.00,28.5,27.0,00.0,37.7,30.6,26.5,0040.60,0023.12
2021-08-12 20:27:00,,0833.3,5.01,0.00,28.6,27.3,00.0,37.7,30.7,26.6,0039.78,0023.10
2021-08-12 20:28:00,,0833.2,4.99,0.00,28.7,27.6,00.0,37.7,30.8,26.6,0040.78,0023.15
2021-08-12 20:29:00,,0833.2,4.99,0.00,28.8,27.9,00.0,37.7,30.9,26.7,0042.09,0023.11
2021-08-12 20:30:00,,0833.2,5.00,0.00,28.9,28.1,00.0,37.8,31.0,26.3,0043.74,0023.11
2021-08-12 20:31:00,,0833.2,5.02,0.00,28.9,27.4,00.0,37.8,30.8,25.3,0043.58,0023.11
2021-08-12 20:32:00,,0833.2,4.99,0.00,28.8,25.8,00.0,37.8,30.4,25.0,0042.26,0023.21
2021-08-12 20:33:00,,0833.2,5.01,0.00,28.6,25.6,00.0,37.8,30.2,25.3,0041.81,0023.22
2021-08-12 20:34:00,,0833.1,4.99,0.00,28.6,26.0,00.0,37.7,30.4,26.6,0041.34,0023.15
2021-08-12 20:35:00,,0833.1,5.00,0.00,28.5,26.4,00.0,37.7,30.5,26.0,0041.40,0023.08
2021-08-12 20:36:00,,0833.1,4.99,0.00,28.6,26.8,00.0,37.7,30.6,25.3,0040.94,0023.07
2021-08-12 20:37:00,,0833.1,5.00,0.00,28.6,27.2,00.0,37.7,30.7,26.1,0039.83,0023.01
2021-08-12 20:38:00,,0833.1,5.00,0.00,28.7,27.5,00.0,37.7,30.8,27.3,0039.37,0022.92
2021-08-12 20:39:00,,0833.2,5.00,0.00,28.8,27.8,00.0,37.8,30.9,27.2,0038.75,0022.82
2021-08-12 20:40:00,,0833.1,4.99,0.00,28.9,27.3,00.0,37.8,30.7,27.3,0037.50,0022.73
2021-08-12 20:41:00,,0833.1,5.00,0.00,28.7,25.7,00.0,37.7,30.3,27.6,0035.56,0022.64
2021-08-12 20:42:00,,0833.1,5.00,0.00,28.5,25.4,00.0,37.7,30.1,28.0,0036.97,0022.51
2021-08-12 20:43:00,,0833.1,5.00,0.00,28.5,25.8,00.0,37.7,30.3,28.1,0037.60,0022.25
2021-08-12 20:44:00,,0833.1,4.99,0.00,28.5,26.2,00.0,37.7,30.4,28.5,0037.84,0021.98
2021-08-12 20:45:00,,0833.1,5.00,0.00,28.5,26.7,00.0,37.7,30.5,28.1,0038.88,0021.79
2021-08-12 20:46:00,,0833.0,4.99,0.00,28.6,27.1,00.0,37.7,30.6,27.9,0039.02,0021.64
2021-08-12 20:47:00,,0833.1,5.01,0.00,28.7,27.4,00.0,37.7,30.7,27.9,0039.97,0021.43
2021-08-12 20:48:00,,0833.0,5.00,0.00,28.7,27.7,00.0,37.7,30.8,28.2,0040.01,0021.25
2021-08-12 20:49:00,,0832.9,4.98,0.00,28.8,28.0,00.0,37.8,31.0,27.8,0040.58,0021.12
2021-08-12 20:50:00,,0833.0,4.99,0.00,28.9,27.6,00.0,37.8,30.9,27.4,0041.52,0021.07
2021-08-12 20:51:00,,0833.0,5.01,0.00,28.8,26.0,00.0,37.8,30.4,27.2,0042.25,0021.06
2021-08-12 20:52:00,,0833.0,5.00,0.00,28.6,25.4,00.0,37.8,30.2,27.8,0043.25,0021.07
2021-08-12 20:53:00,,0832.9,4.98,0.00,28.5,25.8,00.0,37.7,30.2,27.6,0041.74,0020.97
2021-08-12 20:54:00,,0832.9,5.00,0.00,28.5,26.2,00.0,37.7,30.3,28.0,0040.62,0020.88
2021-08-12 20:55:00,,0832.8,5.01,0.00,28.5,26.7,00.0,37.7,30.5,28.1,0040.23,0020.83
2021-08-12 20:56:00,,0832.8,4.99,0.00,28.6,27.1,00.0,37.7,30.7,28.3,0038.28,0020.77
2021-08-12 20:57:00,,0832.8,5.01,0.00,28.7,27.5,00.0,37.7,30.8,27.9,0038.14,0020.67
2021-08-12 20:58:00,,0832.9,5.00,0.00,28.8,27.8,00.0,37.7,30.9,27.7,0037.38,0020.58
2021-08-12 20:59:00,,0832.9,5.00,0.00,28.9,28.0,00.0,37.8,31.0,27.2,0038.77,0020.52
